Location: Northam
(31.6525°S, 116.6655°E)
Time: 23:54:15
(UTC+08:00)

Envisat - Pass Details

Date: 24 May 2021
Orbit: 764 x 766 km, 98.1° (Epoch: 14 June)

Event Time Altitude Azimuth Distance (km) Brightness Sun altitude
Rises 04:10:40 0° 39° (NE) 3,220 6.8 -35.6°
Reaches altitude 10° 04:13:12 10° 50° (NE) 2,302 6.0 -35.1°
Maximum altitude 04:17:34 30° 109° (ESE) 1,362 4.7 -34.2°
Enters shadow 04:18:56 26° 137° (SE) 1,483 4.7 -33.9°
